Home > Weather > Eskilstuna > Past weeks

Flag for Sweden Past Weather in Eskilstuna, Sweden — Yesterday and Last 2 Weeks

Now
79 °F

Passing clouds.


Feels Like: 80 °F
Forecast: 58 / 69 °F
Wind: 8 mph from South

Location: Vasteras / Hasslo

Current Time: Aug 26, 2016 at 2:22:57 PM

Latest Report: Aug 26, 2016 at 1:50 PM


Visibility: N/A

Pressure: 29.86 "Hg

Humidity: 51%

Dew Point: 59 °F

Location of EskilstunaLocation

Past Weather in Eskilstuna — Graph

°F

Eskilstuna Temperature Yesterday

Maximum temperature yesterday: 73 °F (at 2:50 PM)
Minimum temperature yesterday: 59 °F (at 12:20 AM)
Average temperature yesterday: 65 °F

High & Low Weather Summary for the Past Weeks

 TemperatureHumidityPressure
High79 °F (Aug 26, 1:20 PM)100% (Aug 12, 4:50 AM)30.27 "Hg (Aug 12, 4:50 AM)
Low37 °F (Aug 12, 4:50 AM)37% (Aug 12, 3:50 PM)29.62 "Hg (Aug 13, 3:50 AM)
Average61 °F74%29.97 "Hg
* Reported Aug 11 1:20 PM — Aug 26 1:20 PM, Eskilstuna, Weather by CustomWeather, © 2016

Note: Actual official high and low records may vary slightly from our data, if they occured in-between our weather recording intervals... More about our weather records

Advertising

Eskilstuna Weather History for the Previous 24 Hours

Scroll right to see more
 ConditionsComfort  
Time TempWeatherWind HumidityBarometerVisibility
1:20 PM
Fri, Aug 26
79 °FPassing clouds.10 mph51%29.89 "HgN/A
12:50 PM75 °FSunny.8 mph65%29.89 "Hg10 mi
12:20 PM75 °FPassing clouds.9 mph65%29.92 "HgN/A
11:50 AM73 °FPassing clouds.10 mph74%29.92 "HgN/A
11:20 AM72 °FPassing clouds.8 mph78%29.92 "HgN/A
10:50 AM72 °FPassing clouds.12 mph78%29.95 "HgN/A
10:20 AM72 °FPassing clouds.8 mph78%29.95 "HgN/A
9:50 AM70 °FPassing clouds.10 mph83%29.95 "HgN/A
9:20 AM68 °FSunny.8 mph83%29.98 "Hg10 mi
8:50 AM68 °FPassing clouds.7 mph83%29.98 "HgN/A
8:20 AM66 °FSunny.6 mph88%29.98 "Hg10 mi
7:50 AM64 °FSunny.3 mph94%29.98 "Hg10 mi
7:20 AM64 °FFog.3 mph94%30.01 "Hg5 mi
6:50 AM63 °FFog.2 mph94%30.01 "Hg4 mi
6:20 AM61 °FFog.3 mph100%30.01 "Hg0 mi
5:50 AM63 °FPassing clouds.2 mph94%30.01 "Hg1 mi
5:20 AM63 °FMostly cloudy.5 mph94%30.01 "Hg1 mi
4:50 AM63 °FFog.1 mph94%30.04 "Hg0 mi
4:20 AM63 °FFog.1 mph94%30.04 "Hg1 mi
3:50 AM63 °FFog.3 mph100%30.04 "Hg0 mi
3:20 AM63 °FFog.3 mph100%30.04 "Hg1 mi
2:50 AM63 °FFog.3 mph100%30.04 "Hg0 mi
2:20 AM63 °FFog.2 mph100%30.04 "Hg0 mi
1:50 AM64 °FFog.2 mph94%30.04 "Hg0 mi
1:20 AM64 °FFog.2 mph94%30.04 "Hg0 mi
12:50 AM64 °FFog.2 mph94%30.04 "Hg1 mi
12:20 AM64 °FFog.No wind94%30.04 "Hg2 mi
11:50 PM
Thu, Aug 25
64 °FFog.2 mph94%30.04 "Hg2 mi
11:20 PM64 °FFog.2 mph94%30.07 "Hg2 mi
10:50 PM66 °FFog.1 mph94%30.07 "Hg1 mi
10:20 PM66 °FLight rain. Mostly cloudy.2 mph94%30.07 "HgN/A
9:50 PM66 °FLight rain. Passing clouds.3 mph94%30.07 "HgN/A
9:20 PM64 °FFog.5 mph100%30.07 "Hg4 mi
8:50 PM66 °FPartly sunny.2 mph94%30.07 "HgN/A
8:20 PM66 °FDrizzle. Partly sunny.5 mph88%30.07 "HgN/A
7:50 PM66 °FRain. Partly sunny.5 mph94%30.07 "Hg2 mi
7:20 PM68 °FDrizzle. Partly sunny.3 mph88%30.07 "HgN/A
6:50 PM68 °FLight rain. Scattered clouds.6 mph88%30.07 "HgN/A
6:20 PM68 °FLight rain. Partly sunny.6 mph88%30.07 "HgN/A
5:50 PM68 °FLight rain. Scattered clouds.6 mph88%30.09 "HgN/A
5:20 PM70 °FLight rain. Broken clouds.6 mph78%30.09 "HgN/A
4:50 PM70 °FDrizzle. Broken clouds.6 mph78%30.09 "HgN/A
4:20 PM72 °FLight rain. Broken clouds.6 mph73%30.09 "HgN/A
3:50 PM72 °FPassing clouds.7 mph69%30.09 "HgN/A
3:20 PM72 °FSunny.6 mph73%30.09 "Hg10 mi
2:50 PM73 °FPassing clouds.3 mph65%30.09 "HgN/A
2:20 PM72 °FPassing clouds.5 mph73%30.12 "HgN/A
Weather by CustomWeather, © 2016

See weather overviewHow to use our weather pages